Time,TemperatureF,DewpointF,PressureIn,WindDirection,WindDirectionDegrees,WindSpeedMPH,WindSpeedGustMPH,Humidity,HourlyPrecipIn,Conditions,Clouds,dailyrainin,SoftwareType,DateUTC
2013-09-01 00:09:00,77.6,75.4,29.93,SE,134,0.0,1.0,93,0.00,,,0.00,Weather View 32 v70,2013-09-01 04:09:00,
2013-09-01 00:19:00,77.1,74.6,29.93,SE,130,0.0,1.0,92,0.00,,,0.00,Weather View 32 v70,2013-09-01 04:19:00,
2013-09-01 00:27:00,77.1,74.6,29.93,SE,130,0.0,1.0,92,0.00,,,0.00,Weather View 32 v70,2013-09-01 04:27:00,
2013-09-01 00:29:00,75.7,73.8,29.93,SE,130,0.0,1.0,94,0.00,,,0.00,Weather View 32 v70,2013-09-01 04:29:00,
2013-09-01 00:39:00,75.4,73.5,29.92,SE,130,0.0,1.0,94,0.00,,,0.00,Weather View 32 v70,2013-09-01 04:39:00,
2013-09-01 00:49:00,75.3,73.4,29.92,SE,134,0.0,1.0,94,0.00,,,0.00,Weather View 32 v70,2013-09-01 04:49:00,
2013-09-01 00:59:00,75.8,74.3,29.92,SSE,166,0.0,1.0,95,0.00,,,0.00,Weather View 32 v70,2013-09-01 04:59:00,
2013-09-01 01:09:00,76.5,74.3,29.92,South,186,0.0,1.0,93,0.00,,,0.00,Weather View 32 v70,2013-09-01 05:09:00,
2013-09-01 01:19:00,76.2,74.0,29.92,South,186,0.0,1.0,93,0.00,,,0.00,Weather View 32 v70,2013-09-01 05:19:00,
2013-09-01 01:28:00,76.2,74.0,29.92,South,186,0.0,1.0,93,0.00,,,0.00,Weather View 32 v70,2013-09-01 05:28:00,
2013-09-01 01:29:00,77.0,75.1,29.93,ESE,117,0.0,1.0,94,0.00,,,0.00,Weather View 32 v70,2013-09-01 05:29:00,
2013-09-01 01:39:00,77.2,75.3,29.92,SE,140,6.0,10.0,94,0.00,,,0.00,Weather View 32 v70,2013-09-01 05:39:00,
2013-09-01 01:49:00,76.9,74.7,29.92,SSE,163,3.0,10.0,93,0.00,,,0.00,Weather View 32 v70,2013-09-01 05:49:00,
2013-09-01 01:59:00,76.9,74.7,29.92,SSE,160,3.0,10.0,93,0.00,,,0.00,Weather View 32 v70,2013-09-01 05:59:00,
2013-09-01 02:10:00,76.7,74.5,29.91,SSE,159,2.0,10.0,93,0.00,,,0.00,Weather View 32 v70,2013-09-01 06:10:00,
2013-09-01 02:20:00,76.4,74.2,29.91,SSE,161,5.0,10.0,93,0.00,,,0.00,Weather View 32 v70,2013-09-01 06:20:00,
2013-09-01 02:29:00,76.4,74.2,29.91,SSE,161,5.0,10.0,93,0.00,,,0.00,Weather View 32 v70,2013-09-01 06:29:00,
2013-09-01 02:39:00,75.8,73.3,29.91,South,178,0.0,9.0,92,0.00,,,0.00,Weather View 32 v70,2013-09-01 06:39:00,
2013-09-01 02:49:00,75.1,72.6,29.90,South,178,0.0,8.0,92,0.00,,,0.00,Weather View 32 v70,2013-09-01 06:49:00,
2013-09-01 02:59:00,74.6,72.4,29.90,South,178,0.0,8.0,93,0.00,,,0.00,Weather View 32 v70,2013-09-01 06:59:00,
2013-09-01 03:09:00,74.2,72.4,29.90,South,178,0.0,6.0,94,0.00,,,0.00,Weather View 32 v70,2013-09-01 07:09:00,
2013-09-01 03:19:00,74.3,72.5,29.91,South,178,0.0,5.0,94,0.00,,,0.00,Weather View 32 v70,2013-09-01 07:19:00,
2013-09-01 03:30:00,74.0,72.5,29.91,South,178,0.0,3.0,95,0.00,,,0.00,Weather View 32 v70,2013-09-01 07:30:00,
2013-09-01 03:39:00,74.0,72.5,29.91,South,178,0.0,1.0,95,0.00,,,0.00,Weather View 32 v70,2013-09-01 07:39:00,
2013-09-01 03:49:00,74.8,73.3,29.91,SSE,165,0.0,1.0,95,0.00,,,0.00,Weather View 32 v70,2013-09-01 07:49:00,
2013-09-01 03:59:00,74.8,72.9,29.91,SE,140,0.0,1.0,94,0.00,,,0.00,Weather View 32 v70,2013-09-01 07:59:00,
2013-09-01 04:09:00,74.4,72.6,29.91,SSE,167,0.0,1.0,94,0.00,,,0.00,Weather View 32 v70,2013-09-01 08:09:00,
2013-09-01 04:19:00,74.7,72.8,29.91,South,173,0.0,1.0,94,0.00,,,0.00,Weather View 32 v70,2013-09-01 08:19:00,
2013-09-01 04:30:00,74.8,72.9,29.91,SE,140,0.0,1.0,94,0.00,,,0.00,Weather View 32 v70,2013-09-01 08:30:00,
2013-09-01 04:39:00,74.6,72.4,29.92,SSE,158,0.0,1.0,93,0.00,,,0.00,Weather View 32 v70,2013-09-01 08:39:00,
2013-09-01 04:49:00,74.7,72.8,29.91,SSE,167,0.0,1.0,94,0.00,,,0.00,Weather View 32 v70,2013-09-01 08:49:00,
2013-09-01 04:59:00,74.7,72.5,29.92,South,174,0.0,1.0,93,0.00,,,0.00,Weather View 32 v70,2013-09-01 08:59:00,
2013-09-01 05:10:00,75.0,73.1,29.92,South,174,0.0,1.0,94,0.00,,,0.00,Weather View 32 v70,2013-09-01 09:10:00,
2013-09-01 05:19:00,75.1,73.2,29.92,SSE,156,0.0,1.0,94,0.00,,,0.00,Weather View 32 v70,2013-09-01 09:19:00,
2013-09-01 05:29:00,74.6,72.4,29.92,South,191,0.0,1.0,93,0.00,,,0.00,Weather View 32 v70,2013-09-01 09:29:00,
2013-09-01 05:31:00,74.6,72.4,29.92,South,191,0.0,1.0,93,0.00,,,0.00,Weather View 32 v70,2013-09-01 09:31:00,
2013-09-01 05:39:00,74.6,72.8,29.92,SSE,163,0.0,5.0,94,0.00,,,0.00,Weather View 32 v70,2013-09-01 09:39:00,
2013-09-01 05:49:00,74.6,72.8,29.92,South,175,0.0,5.0,94,0.00,,,0.00,Weather View 32 v70,2013-09-01 09:49:00,
2013-09-01 05:59:00,74.5,72.7,29.93,SSE,168,0.0,5.0,94,0.00,,,0.00,Weather View 32 v70,2013-09-01 09:59:00,
2013-09-01 06:09:00,74.4,72.6,29.93,SSE,153,0.0,5.0,94,0.00,,,0.00,Weather View 32 v70,2013-09-01 10:09:00,
2013-09-01 06:19:00,74.2,72.4,29.93,South,182,0.0,5.0,94,0.00,,,0.00,Weather View 32 v70,2013-09-01 10:19:00,
2013-09-01 06:29:00,74.3,72.8,29.94,South,182,0.0,5.0,95,0.00,,,0.00,Weather View 32 v70,2013-09-01 10:29:00,
2013-09-01 06:31:00,74.3,72.8,29.94,South,182,0.0,5.0,95,0.00,,,0.00,Weather View 32 v70,2013-09-01 10:31:00,
2013-09-01 06:39:00,74.6,73.1,29.94,South,182,0.0,5.0,95,0.00,,,0.00,Weather View 32 v70,2013-09-01 10:39:00,
2013-09-01 06:49:00,74.6,73.1,29.95,South,182,0.0,1.0,95,0.00,,,0.00,Weather View 32 v70,2013-09-01 10:49:00,
2013-09-01 06:59:00,74.8,73.3,29.95,South,182,0.0,1.0,95,0.00,,,0.00,Weather View 32 v70,2013-09-01 10:59:00,
2013-09-01 07:09:00,75.1,73.6,29.95,SSE,164,0.0,1.0,95,0.00,,,0.00,Weather View 32 v70,2013-09-01 11:09:00,
2013-09-01 07:19:00,74.7,72.8,29.95,SSE,154,0.0,1.0,94,0.00,,,0.00,Weather View 32 v70,2013-09-01 11:19:00,
2013-09-01 07:29:00,74.2,72.7,29.95,SSE,154,0.0,1.0,95,0.00,,,0.00,Weather View 32 v70,2013-09-01 11:29:00,
2013-09-01 07:32:00,74.2,72.7,29.95,SSE,154,0.0,1.0,95,0.00,,,0.00,Weather View 32 v70,2013-09-01 11:32:00,
2013-09-01 07:39:00,74.9,73.4,29.96,SSE,154,0.0,1.0,95,0.00,,,0.00,Weather View 32 v70,2013-09-01 11:39:00,
2013-09-01 07:49:00,74.7,72.8,29.96,SSE,154,0.0,1.0,94,0.00,,,0.00,Weather View 32 v70,2013-09-01 11:49:00,
2013-09-01 07:59:00,75.5,73.6,29.96,SSE,154,0.0,1.0,94,0.00,,,0.00,Weather View 32 v70,2013-09-01 11:59:00,
2013-09-01 08:09:00,76.4,74.5,29.95,SSE,162,0.0,1.0,94,0.00,,,0.00,Weather View 32 v70,2013-09-01 12:09:00,
2013-09-01 08:19:00,77.2,75.0,29.95,SE,144,0.0,1.0,93,0.00,,,0.00,Weather View 32 v70,2013-09-01 12:19:00,
2013-09-01 08:30:00,77.7,75.2,29.96,SE,144,0.0,1.0,92,0.00,,,0.00,Weather View 32 v70,2013-09-01 12:30:00,
2013-09-01 08:32:00,77.7,75.2,29.96,SE,144,0.0,1.0,92,0.00,,,0.00,Weather View 32 v70,2013-09-01 12:32:00,
2013-09-01 08:40:00,78.5,75.3,29.96,SSE,162,0.0,1.0,90,0.00,,,0.00,Weather View 32 v70,2013-09-01 12:40:00,
2013-09-01 08:49:00,78.5,75.6,29.96,SSE,163,0.0,1.0,91,0.00,,,0.00,Weather View 32 v70,2013-09-01 12:49:00,
2013-09-01 08:59:00,78.5,75.3,29.96,South,170,0.0,1.0,90,0.00,,,0.00,Weather View 32 v70,2013-09-01 12:59:00,
2013-09-01 09:09:00,79.0,75.8,29.96,SSE,157,0.0,1.0,90,0.00,,,0.00,Weather View 32 v70,2013-09-01 13:09:00,
2013-09-01 09:19:00,79.6,76.1,29.96,SSE,161,0.0,1.0,89,0.00,,,0.00,Weather View 32 v70,2013-09-01 13:19:00,
2013-09-01 09:29:00,80.0,76.1,29.96,SE,132,0.0,1.0,88,0.00,,,0.00,Weather View 32 v70,2013-09-01 13:29:00,
2013-09-01 09:33:00,80.0,76.1,29.96,SE,132,0.0,1.0,88,0.00,,,0.00,Weather View 32 v70,2013-09-01 13:33:00,
2013-09-01 09:39:00,80.5,76.3,29.96,SE,135,0.0,1.0,87,0.00,,,0.00,Weather View 32 v70,2013-09-01 13:39:00,
2013-09-01 09:49:00,81.1,76.8,29.97,SSE,159,0.0,1.0,87,0.00,,,0.00,Weather View 32 v70,2013-09-01 13:49:00,
2013-09-01 09:59:00,81.6,76.6,29.97,SE,134,1.0,1.0,85,0.00,,,0.00,Weather View 32 v70,2013-09-01 13:59:00,
2013-09-01 10:09:00,81.7,76.7,29.97,SE,141,5.0,6.0,85,0.00,,,0.00,Weather View 32 v70,2013-09-01 14:09:00,
2013-09-01 10:19:00,82.3,76.6,29.97,South,171,3.0,6.0,83,0.00,,,0.00,Weather View 32 v70,2013-09-01 14:19:00,
2013-09-01 10:29:00,82.5,76.8,29.97,South,172,4.0,8.0,83,0.00,,,0.00,Weather View 32 v70,2013-09-01 14:29:00,
2013-09-01 10:33:00,82.5,76.8,29.97,South,172,4.0,8.0,83,0.00,,,0.00,Weather View 32 v70,2013-09-01 14:33:00,
2013-09-01 10:40:00,83.3,75.7,29.97,South,188,5.0,9.0,78,0.00,,,0.00,Weather View 32 v70,2013-09-01 14:40:00,
2013-09-01 10:50:00,83.5,75.9,29.97,South,171,1.0,9.0,78,0.00,,,0.00,Weather View 32 v70,2013-09-01 14:50:00,
2013-09-01 11:00:00,84.1,75.7,29.97,WNW,290,1.0,9.0,76,0.00,,,0.00,Weather View 32 v70,2013-09-01 15:00:00,
2013-09-01 11:10:00,84.6,76.2,29.97,South,170,3.0,9.0,76,0.00,,,0.00,Weather View 32 v70,2013-09-01 15:10:00,
2013-09-01 11:20:00,84.8,75.5,29.97,WNW,285,2.0,9.0,74,0.00,,,0.00,Weather View 32 v70,2013-09-01 15:20:00,
2013-09-01 11:29:00,85.1,75.4,29.97,NW,323,0.0,9.0,73,0.00,,,0.00,Weather View 32 v70,2013-09-01 15:29:00,
2013-09-01 11:34:00,85.1,75.4,29.97,NW,323,0.0,9.0,73,0.00,,,0.00,Weather View 32 v70,2013-09-01 15:34:00,
2013-09-01 11:39:00,85.1,75.0,29.97,SSE,154,2.0,7.0,72,0.00,,,0.00,Weather View 32 v70,2013-09-01 15:39:00,
2013-09-01 11:49:00,85.3,75.2,29.96,SSW,201,0.0,6.0,72,0.00,,,0.00,Weather View 32 v70,2013-09-01 15:49:00,
2013-09-01 11:59:00,85.6,75.1,29.96,West,275,0.0,6.0,71,0.00,,,0.00,Weather View 32 v70,2013-09-01 15:59:00,
2013-09-01 12:09:00,85.6,75.1,29.96,West,275,0.0,6.0,71,0.00,,,0.00,Weather View 32 v70,2013-09-01 16:09:00,
2013-09-01 12:19:00,86.0,75.9,29.96,SSW,194,0.0,6.0,72,0.00,,,0.00,Weather View 32 v70,2013-09-01 16:19:00,
2013-09-01 12:29:00,86.3,74.0,29.96,South,180,0.0,8.0,67,0.00,,,0.00,Weather View 32 v70,2013-09-01 16:29:00,
2013-09-01 12:39:00,87.0,73.3,29.96,SSE,150,3.0,8.0,64,0.00,,,0.00,Weather View 32 v70,2013-09-01 16:39:00,
2013-09-01 12:49:00,86.8,72.2,29.95,SE,142,3.0,10.0,62,0.00,,,0.00,Weather View 32 v70,2013-09-01 16:49:00,
2013-09-01 12:59:00,87.0,74.2,29.95,SSE,163,0.0,10.0,66,0.00,,,0.00,Weather View 32 v70,2013-09-01 16:59:00,
2013-09-01 13:10:00,87.3,74.0,29.95,SSW,200,1.0,10.0,65,0.00,,,0.00,Weather View 32 v70,2013-09-01 17:10:00,
2013-09-01 13:20:00,87.7,75.3,29.95,SSW,192,1.0,10.0,67,0.00,,,0.00,Weather View 32 v70,2013-09-01 17:20:00,
2013-09-01 13:29:00,87.9,74.6,29.94,SSW,205,1.0,11.0,65,0.00,,,0.00,Weather View 32 v70,2013-09-01 17:29:00,
2013-09-01 13:36:00,87.9,74.6,29.94,SSW,205,1.0,11.0,65,0.00,,,0.00,Weather View 32 v70,2013-09-01 17:36:00,
2013-09-01 13:39:00,87.7,74.9,29.94,SSE,168,0.0,11.0,66,0.00,,,0.00,Weather View 32 v70,2013-09-01 17:39:00,
2013-09-01 13:50:00,88.1,73.4,29.94,SSE,163,4.0,11.0,62,0.00,,,0.00,Weather View 32 v70,2013-09-01 17:50:00,
2013-09-01 14:00:00,88.8,73.6,29.93,SSE,154,6.0,11.0,61,0.00,,,0.00,Weather View 32 v70,2013-09-01 18:00:00,
2013-09-01 14:10:00,88.8,73.6,29.93,SSE,161,8.0,12.0,61,0.00,,,0.00,Weather View 32 v70,2013-09-01 18:10:00,
2013-09-01 14:20:00,88.4,74.6,29.93,SE,138,4.0,12.0,64,0.00,,,0.00,Weather View 32 v70,2013-09-01 18:20:00,
2013-09-01 14:30:00,89.2,74.4,29.92,WNW,303,3.0,12.0,62,0.00,,,0.00,Weather View 32 v70,2013-09-01 18:30:00,
2013-09-01 14:36:00,89.2,74.4,29.92,WNW,303,3.0,12.0,62,0.00,,,0.00,Weather View 32 v70,2013-09-01 18:36:00,
2013-09-01 14:39:00,88.2,74.4,29.92,SSE,161,3.0,12.0,64,0.00,,,0.00,Weather View 32 v70,2013-09-01 18:39:00,
2013-09-01 14:59:00,88.8,75.9,29.91,South,169,2.0,12.0,66,0.00,,,0.00,Weather View 32 v70,2013-09-01 18:59:00,
2013-09-01 15:09:00,88.8,74.0,29.91,South,169,0.0,12.0,62,0.00,,,0.00,Weather View 32 v70,2013-09-01 19:09:00,
2013-09-01 15:19:00,89.0,75.2,29.90,South,181,0.0,8.0,64,0.00,,,0.00,Weather View 32 v70,2013-09-01 19:19:00,
2013-09-01 15:29:00,88.8,75.0,29.89,South,170,2.0,8.0,64,0.00,,,0.00,Weather View 32 v70,2013-09-01 19:29:00,
2013-09-01 15:37:00,88.8,75.0,29.89,South,170,2.0,8.0,64,0.00,,,0.00,Weather View 32 v70,2013-09-01 19:37:00,
2013-09-01 15:39:00,89.0,73.2,29.89,South,169,5.0,9.0,60,0.00,,,0.00,Weather View 32 v70,2013-09-01 19:39:00,
2013-09-01 15:49:00,89.0,74.2,29.89,SSE,167,6.0,10.0,62,0.00,,,0.00,Weather View 32 v70,2013-09-01 19:49:00,
2013-09-01 15:59:00,89.1,74.3,29.89,SW,230,2.0,10.0,63,0.00,,,0.00,Weather View 32 v70,2013-09-01 19:59:00,
2013-09-01 16:09:00,89.7,74.4,29.88,South,170,1.0,10.0,61,0.00,,,0.00,Weather View 32 v70,2013-09-01 20:09:00,
2013-09-01 16:19:00,89.9,74.6,29.88,SSE,161,6.0,10.0,61,0.00,,,0.00,Weather View 32 v70,2013-09-01 20:19:00,
2013-09-01 16:29:00,89.3,73.0,29.88,SE,138,0.0,10.0,59,0.00,,,0.00,Weather View 32 v70,2013-09-01 20:29:00,
2013-09-01 16:37:00,89.3,73.0,29.88,SE,138,0.0,10.0,59,0.00,,,0.00,Weather View 32 v70,2013-09-01 20:37:00,
2013-09-01 16:40:00,89.5,73.2,29.88,South,188,1.0,10.0,59,0.00,,,0.00,Weather View 32 v70,2013-09-01 20:40:00,
2013-09-01 16:50:00,89.9,74.6,29.88,West,261,0.0,9.0,61,0.00,,,0.00,Weather View 32 v70,2013-09-01 20:50:00,
2013-09-01 17:00:00,89.9,73.6,29.88,West,278,1.0,8.0,59,0.00,,,0.00,Weather View 32 v70,2013-09-01 21:00:00,
2013-09-01 17:10:00,89.8,74.5,29.87,SSE,161,4.0,7.0,61,0.00,,,0.00,Weather View 32 v70,2013-09-01 21:10:00,
2013-09-01 17:20:00,89.5,73.7,29.87,SSE,149,4.0,7.0,60,0.00,,,0.00,Weather View 32 v70,2013-09-01 21:20:00,
2013-09-01 17:30:00,89.4,74.1,29.87,West,261,3.0,7.0,61,0.00,,,0.00,Weather View 32 v70,2013-09-01 21:30:00,
2013-09-01 17:38:00,89.4,74.1,29.87,West,261,3.0,7.0,61,0.00,,,0.00,Weather View 32 v70,2013-09-01 21:38:00,
2013-09-01 17:39:00,89.5,73.7,29.87,West,259,0.0,7.0,60,0.00,,,0.00,Weather View 32 v70,2013-09-01 21:39:00,
2013-09-01 17:49:00,88.8,75.5,29.87,SW,228,0.0,7.0,65,0.00,,,0.00,Weather View 32 v70,2013-09-01 21:49:00,
2013-09-01 17:59:00,88.1,74.3,29.88,West,261,0.0,7.0,64,0.00,,,0.00,Weather View 32 v70,2013-09-01 21:59:00,
2013-09-01 18:09:00,87.2,74.9,29.88,West,261,0.0,7.0,67,0.00,,,0.00,Weather View 32 v70,2013-09-01 22:09:00,
2013-09-01 18:19:00,87.5,75.6,29.88,West,261,0.0,7.0,68,0.00,,,0.00,Weather View 32 v70,2013-09-01 22:19:00,
2013-09-01 18:29:00,86.9,76.3,29.88,West,272,0.0,5.0,71,0.00,,,0.00,Weather View 32 v70,2013-09-01 22:29:00,
2013-09-01 18:38:00,86.9,76.3,29.88,West,272,0.0,5.0,71,0.00,,,0.00,Weather View 32 v70,2013-09-01 22:38:00,
2013-09-01 18:39:00,85.5,75.0,29.89,West,261,1.0,6.0,71,0.00,,,0.00,Weather View 32 v70,2013-09-01 22:39:00,
2013-09-01 18:49:00,84.4,74.8,29.89,WNW,285,4.0,7.0,73,0.00,,,0.00,Weather View 32 v70,2013-09-01 22:49:00,
2013-09-01 18:59:00,82.0,72.9,29.90,WSW,246,2.0,7.0,74,0.00,,,0.00,Weather View 32 v70,2013-09-01 22:59:00,
2013-09-01 19:09:00,79.4,71.9,29.89,WNW,287,3.0,7.0,78,0.00,,,0.00,Weather View 32 v70,2013-09-01 23:09:00,
2013-09-01 19:19:00,79.0,72.3,29.89,WSW,257,0.0,7.0,80,0.00,,,0.00,Weather View 32 v70,2013-09-01 23:19:00,
2013-09-01 19:30:00,79.2,72.8,29.89,WSW,257,0.0,7.0,81,0.00,,,0.00,Weather View 32 v70,2013-09-01 23:30:00,
2013-09-01 19:39:00,79.2,72.8,29.89,WSW,257,0.0,7.0,81,0.00,,,0.00,Weather View 32 v70,2013-09-01 23:39:00,
2013-09-01 19:40:00,80.1,74.1,29.89,WSW,257,0.0,7.0,82,0.00,,,0.00,Weather View 32 v70,2013-09-01 23:40:00,
2013-09-01 19:50:00,80.3,75.0,29.90,WSW,257,0.0,7.0,84,0.00,,,0.00,Weather View 32 v70,2013-09-01 23:50:00,
2013-09-01 20:00:00,80.0,75.4,29.90,WSW,257,0.0,7.0,86,0.00,,,0.00,Weather View 32 v70,2013-09-02 00:00:00,
2013-09-01 20:10:00,79.5,74.6,29.90,WSW,257,0.0,4.0,85,0.00,,,0.00,Weather View 32 v70,2013-09-02 00:10:00,
2013-09-01 20:20:00,79.4,74.1,29.91,WSW,257,0.0,1.0,84,0.00,,,0.00,Weather View 32 v70,2013-09-02 00:20:00,
2013-09-01 20:30:00,79.0,74.8,29.91,WSW,257,0.0,1.0,87,0.00,,,0.00,Weather View 32 v70,2013-09-02 00:30:00,
2013-09-01 20:40:00,78.8,74.6,29.92,WSW,257,0.0,1.0,87,0.00,,,0.00,Weather View 32 v70,2013-09-02 00:40:00,
2013-09-01 20:49:00,78.7,74.8,29.91,WSW,257,0.0,0.0,88,0.00,,,0.00,Weather View 32 v70,2013-09-02 00:49:00,
2013-09-01 20:59:00,78.4,74.5,29.91,WSW,257,0.0,0.0,88,0.00,,,0.00,Weather View 32 v70,2013-09-02 00:59:00,
2013-09-01 21:09:00,78.7,74.8,29.93,WSW,257,0.0,0.0,88,0.00,,,0.00,Weather View 32 v70,2013-09-02 01:09:00,
2013-09-01 21:19:00,78.8,74.9,29.93,WSW,257,0.0,0.0,88,0.00,,,0.00,Weather View 32 v70,2013-09-02 01:19:00,
2013-09-01 21:29:00,78.5,74.6,29.93,WSW,257,0.0,0.0,88,0.00,,,0.00,Weather View 32 v70,2013-09-02 01:29:00,
2013-09-01 21:40:00,78.5,75.0,29.94,WSW,257,0.0,0.0,89,0.00,,,0.00,Weather View 32 v70,2013-09-02 01:40:00,
2013-09-01 21:50:00,79.2,76.0,29.95,ENE,57,0.0,0.0,90,0.00,,,0.00,Weather View 32 v70,2013-09-02 01:50:00,
2013-09-01 22:00:00,80.1,74.8,29.96,ENE,65,0.0,0.0,84,0.00,,,0.00,Weather View 32 v70,2013-09-02 02:00:00,
2013-09-01 22:10:00,80.1,74.1,29.96,NNE,30,0.0,0.0,82,0.00,,,0.00,Weather View 32 v70,2013-09-02 02:10:00,
2013-09-01 22:20:00,80.6,75.3,29.97,East,90,0.0,0.0,84,0.00,,,0.00,Weather View 32 v70,2013-09-02 02:20:00,
2013-09-01 22:30:00,79.8,75.2,29.96,East,90,0.0,0.0,86,0.00,,,0.00,Weather View 32 v70,2013-09-02 02:30:00,
2013-09-01 22:39:00,79.9,75.0,29.96,East,90,0.0,0.0,85,0.00,,,0.00,Weather View 32 v70,2013-09-02 02:39:00,
2013-09-01 22:49:00,79.7,75.5,29.96,ESE,123,0.0,0.0,87,0.00,,,0.00,Weather View 32 v70,2013-09-02 02:49:00,
2013-09-01 22:59:00,79.5,75.3,29.96,SSE,167,0.0,0.0,87,0.00,,,0.00,Weather View 32 v70,2013-09-02 02:59:00,
2013-09-01 23:09:00,79.1,74.9,29.96,ESE,103,0.0,0.0,87,0.00,,,0.00,Weather View 32 v70,2013-09-02 03:09:00,
2013-09-01 23:20:00,78.8,75.3,29.96,SE,131,0.0,0.0,89,0.00,,,0.00,Weather View 32 v70,2013-09-02 03:20:00,
2013-09-01 23:30:00,78.4,74.9,29.96,SSE,165,0.0,0.0,89,0.00,,,0.00,Weather View 32 v70,2013-09-02 03:30:00,
2013-09-01 23:40:00,77.9,74.7,29.95,SSE,159,0.0,0.0,90,0.00,,,0.00,Weather View 32 v70,2013-09-02 03:40:00,
2013-09-01 23:41:00,77.9,74.7,29.95,SSE,159,0.0,0.0,90,0.00,,,0.00,Weather View 32 v70,2013-09-02 03:41:00,
2013-09-01 23:50:00,77.9,74.4,29.95,SSE,153,0.0,0.0,89,0.00,,,0.00,Weather View 32 v70,2013-09-02 03:50:00,